[[{"header":{"parameterUnit":"m.s-1","parameterCategory":1,"la1":30.2991,"la2":30.254,"lo1":-89.0895,"lo2":-89.0444,"dy":0.0017,"dx":0.0017,"nx":28,"ny":28,"refTime":"2024-07-01T09:00:00:Z","depth":0,"parameterNumber":2,"parameterNumberName":"U-component_of_WINDS"},"data":[0,0,0,0,0,0,0,0,0,0,0,0,0,0,0,0,0,0,0,0,0,0,0,0,0,0,0,0,0,0,0,0,0,0,0,0,0,0,0,0,0,0,0,0,0,0,0,0,0,0,0,0,0,0,0,0,0,0,1.2481,1.2482,0,1.2599,1.26,1.2601,1.2579,1.2577,1.2575,1.2573,1.2696,1.2702,1.2707,0,0,0,0,0,0,0,0,0,0,0,0,0,1.2237,1.2241,1.2481,1.2482,1.2484,1.2598,1.26,1.2602,1.2579,1.2577,1.2574,1.2572,1.2695,1.2701,1.2707,0,0,0,0,0,0,0,0,0,0,0,0,0,1.2347,1.2243,1.248,1.2486,1.2488,1.2598,1.26,1.2602,1.258,1.2577,1.2574,1.2571,1.2693,1.27,1.2708,1.2821,0,0,1.2732,1.2736,0,0,0,0,0,0,0,0,1.2341,1.2356,1.2484,1.2486,1.2488,1.2571,1.2559,1.2675,1.2581,1.2545,1.2573,1.2569,1.2657,1.2668,1.2697,1.2826,1.2832,1.2733,1.2738,1.2741,1.2743,0,0,0,0,0,0,0,1.2334,1.2351,1.2527,1.2486,1.2488,1.2483,1.2495,1.2581,1.2618,1.2548,1.2547,1.2561,1.2658,1.269,1.27,1.2833,1.2733,1.274,1.2745,1.2748,1.3057,1.306,0,0,0,0,0,0,1.2324,1.2345,1.2524,1.2531,1.2405,1.249,1.2504,1.2548,1.2617,1.2624,1.2563,1.2559,1.2678,1.2691,1.2704,1.2838,1.2741,1.2748,1.2753,1.3053,1.3058,1.3061,0,0,0,0,0,0,1.2319,1.234,1.2519,1.2438,1.246,1.2498,1.2547,1.2552,1.2583,1.2628,1.2635,1.2589,1.2676,1.2693,1.2791,1.2842,1.2752,1.2759,1.3049,1.3055,1.3059,1.3107,0,0,0,0,0,0,1.2312,1.2338,1.2381,1.2439,1.2464,1.2603,1.255,1.2556,1.2596,1.2592,1.2654,1.2661,1.2674,1.2779,1.2798,1.2851,1.2765,1.3045,1.3052,1.3058,1.3101,1.3113,1.3124,0,0,0,0,0,1.2303,1.2392,1.2384,1.2405,1.2519,1.2607,1.2621,1.2634,1.2601,1.2644,1.2672,1.2659,1.2833,1.2789,1.2811,1.2867,1.3042,1.305,1.3057,1.3096,1.3111,1.3123,0,0,0,0,0,0,1.2341,1.2399,1.2391,1.2501,1.2549,1.2603,1.2658,1.265,1.2709,1.2703,1.2716,1.2731,1.2829,1.2858,1.2808,1.2977,1.2933,1.2945,1.2955,1.2969,1.298,1.2971,1.2772,0,0,0,0,0,1.2362,1.2428,1.2475,1.2567,1.2592,1.2621,1.2659,1.2664,1.2715,1.2735,1.2771,1.2821,1.2886,1.293,1.2993,1.3105,1.3117,1.3154,1.3165,1.3174,1.3185,1.3243,1.3259,1.3087,1.3087,1.3087,0,0,1.2407,1.2446,1.2488,1.2576,1.2614,1.2681,1.2638,1.2712,1.2761,1.2747,1.284,1.2868,1.2925,1.3029,1.3077,1.3056,1.3235,1.3184,1.3191,1.3197,1.3253,1.3269,1.3283,1.3092,1.3091,1.309,0,0,1.2521,1.2559,1.2638,1.2676,1.2732,1.2751,1.277,1.2824,1.2841,1.2935,1.2924,1.2984,1.3097,1.3137,1.3172,1.3298,1.3287,1.3318,1.3377,1.3434,1.3447,1.3459,1.3502,1.3517,1.3329,1.3329,1.3329,0,1.257,1.267,1.268,1.2754,1.2792,1.278,1.286,1.2896,1.2971,1.2998,1.2973,1.3112,1.315,1.3262,1.3292,1.3322,1.3343,1.3311,1.3444,1.3457,1.3468,1.3509,1.3525,1.3332,1.3332,1.3331,1.3331,0,1.2725,1.2795,1.2852,1.2922,1.2967,1.3044,1.3065,1.3109,1.311,1.313,1.3224,1.3268,1.3338,1.3365,1.3368,1.3477,1.3462,1.3441,1.3396,1.3488,1.3526,1.3542,1.3337,1.3336,1.3335,1.3334,0,0,1.2869,1.2941,1.2962,1.2992,1.3052,1.3106,1.3181,1.3248,1.3284,1.3336,1.3398,1.3493,1.3472,1.3512,1.3519,1.3569,1.3662,1.3541,1.3542,1.356,1.3782,1.3796,1.3814,1.3655,1.3658,1.3661,1.3776,0,1.2987,1.3118,1.3128,1.3246,1.3309,1.3297,1.3362,1.3406,1.3427,1.3483,1.3506,1.3572,1.3541,1.3564,1.3614,1.364,1.3706,1.3632,1.3712,1.3715,1.3697,1.3835,1.3851,1.3957,1.3792,1.3794,1.3796,0,1.3143,1.3196,1.332,1.3368,1.3395,1.3453,1.3513,1.3568,1.3616,1.3628,1.367,1.3669,1.3745,1.3698,1.3802,1.3751,1.3785,1.3802,1.3807,1.3814,1.376,1.3843,1.3992,1.4007,1.382,1.3818,1.3817,0,1.3232,1.3335,1.3421,1.3448,1.3507,1.3548,1.3574,1.362,1.3658,1.3711,1.3736,1.3798,1.3831,1.3879,1.3894,1.3859,1.3997,1.3952,1.4007,1.4007,1.4036,1.4034,1.4191,1.4061,1.4061,1.406,1.406,0,1.3362,1.3438,1.3461,1.3515,1.3598,1.3609,1.3691,1.3716,1.3755,1.3812,1.3807,1.3861,1.3878,1.3935,1.3947,1.403,1.4046,1.4056,1.4058,1.4056,1.4054,1.4077,1.4069,1.4065,1.4064,1.4063,1.4062,0,1.3475,1.3495,1.3587,1.3634,1.3648,1.3707,1.3747,1.3798,1.3817,1.3889,1.3906,1.3936,1.4002,1.4022,1.4102,1.411,1.4206,1.4203,1.4189,1.4189,1.4242,1.4236,1.4418,1.4441,1.4298,1.4299,1.43,0,1.3556,1.3613,1.3666,1.3702,1.373,1.379,1.3828,1.3841,1.3881,1.3939,1.3982,1.4046,1.4099,1.4204,1.4233,1.4294,1.429,1.435,1.43,1.4294,1.4288,1.4284,1.4288,1.4359,1.436,1.4362,1.4363,0,1.3696,1.3702,1.3757,1.3815,1.386,1.3907,1.3952,1.3982,1.4001,1.4046,1.4112,1.4152,1.4232,1.4296,1.4357,1.4384,1.4376,1.4378,1.4394,1.4391,1.4379,1.4384,1.4213,1.4374,1.4373,1.4372,1.4371,1.4371,1.3794,1.3843,1.3887,1.3947,1.3982,1.4023,1.4071,1.4095,1.415,1.4215,1.4219,1.429,1.4335,1.4415,1.4445,1.4501,1.4484,1.4507,1.4513,1.4518,1.452,1.4372,1.4513,1.4512,1.4512,1.4512,1.4512,0,1.3932,1.3959,1.4014,1.4075,1.4122,1.411,1.4158,1.4198,1.426,1.4302,1.4352,1.4427,1.4488,1.4521,1.4581,1.4619,1.4617,1.4634,1.4631,1.4637,1.4534,1.4513,1.4635,1.4635,1.4635,1.4635,1.4635,1.4635,1.4009,1.409,1.4101,1.4198,1.4225,1.4293,1.4321,1.4358,1.4391,1.4474,1.4524,1.4544,1.4582,1.4645,1.47,1.4708,1.4729,1.4748,1.4754,1.4657,1.4644,1.4632,1.4613,1.4754,1.4754,1.4852,1.4853,1.4854]},{"header":{"parameterUnit":"m.s-1","parameterCategory":1,"la1":30.2991,"la2":30.254,"lo1":-89.0895,"lo2":-89.0444,"dy":0.0017,"dx":0.0017,"nx":28,"ny":28,"refTime":"2024-07-01T09:00:00:Z","depth":0,"parameterNumber":3,"parameterNumberName":"V-component_of_WINDS"},"data":[0,0,0,0,0,0,0,0,0,0,0,0,0,0,0,0,0,0,0,0,0,0,0,0,0,0,0,0,0,0,0,0,0,0,0,0,0,0,0,0,0,0,0,0,0,0,0,0,0,0,0,0,0,0,0,0,0,0,3.8396,3.8396,0,3.8359,3.8359,3.8358,3.8257,3.8255,3.8253,3.8251,3.8215,3.8216,3.8217,0,0,0,0,0,0,0,0,0,0,0,0,0,3.8381,3.8382,3.8396,3.8395,3.8395,3.8359,3.8359,3.8358,3.8258,3.8255,3.8252,3.825,3.8215,3.8216,3.8217,0,0,0,0,0,0,0,0,0,0,0,0,0,3.837,3.8382,3.8396,3.834,3.8335,3.8359,3.8359,3.8358,3.8258,3.8255,3.8252,3.8249,3.8214,3.8216,3.8217,3.8293,0,0,3.8222,3.8223,0,0,0,0,0,0,0,0,3.8371,3.8371,3.8349,3.8344,3.8338,3.8309,3.834,3.8337,3.8259,3.8287,3.8251,3.8247,3.8249,3.8248,3.8248,3.8292,3.829,3.8223,3.8224,3.8224,3.8225,0,0,0,0,0,0,0,3.8372,3.8372,3.8381,3.8349,3.8342,3.8318,3.8313,3.8339,3.8287,3.8285,3.8277,3.8274,3.8246,3.8247,3.8247,3.829,3.8223,3.8224,3.8225,3.8226,3.8391,3.8394,0,0,0,0,0,0,3.838,3.8373,3.8383,3.838,3.8347,3.8321,3.8315,3.8322,3.8287,3.8278,3.8277,3.827,3.8246,3.8245,3.8245,3.8328,3.8224,3.8226,3.8227,3.8388,3.8392,3.8395,0,0,0,0,0,0,3.838,3.8382,3.8384,3.8375,3.8373,3.8325,3.8333,3.8323,3.8324,3.8281,3.8271,3.8287,3.8243,3.8243,3.8281,3.8325,3.8227,3.8228,3.8384,3.8389,3.8394,3.8497,0,0,0,0,0,0,3.838,3.8383,3.841,3.8376,3.8374,3.842,3.8336,3.8325,3.8327,3.8317,3.8288,3.828,3.824,3.8279,3.8283,3.8326,3.8229,3.8379,3.8386,3.8392,3.8489,3.8505,3.8518,0,0,0,0,0,3.838,3.8442,3.8412,3.8414,3.8407,3.8423,3.8422,3.8374,3.8331,3.8358,3.8331,3.8281,3.8322,3.8284,3.8287,3.8331,3.8376,3.8384,3.8391,3.8482,3.8502,3.8518,0,0,0,0,0,0,3.8483,3.8436,3.8403,3.8455,3.8444,3.8406,3.8438,3.8397,3.8398,3.8388,3.833,3.8325,3.8371,3.8356,3.8315,3.8402,3.8341,3.8349,3.8409,3.8427,3.8441,3.8441,3.8231,0,0,0,0,0,3.8512,3.8528,3.8487,3.8537,3.8533,3.8488,3.8493,3.8457,3.8443,3.8438,3.8413,3.8402,3.8412,3.8419,3.8427,3.8489,3.8479,3.8521,3.8535,3.8548,3.8554,3.8583,3.86,3.8421,3.8421,3.842,0,0,3.8571,3.8547,3.8561,3.8557,3.8544,3.8561,3.8484,3.8507,3.8519,3.8442,3.8474,3.8457,3.8441,3.8491,3.8512,3.848,3.8602,3.8557,3.8567,3.8567,3.8592,3.8609,3.8625,3.8426,3.8425,3.8424,0,0,3.8686,3.8672,3.871,3.8699,3.868,3.865,3.866,3.8629,3.8613,3.8646,3.8588,3.8603,3.8622,3.8612,3.861,3.8724,3.8677,3.8729,3.8802,3.8831,3.8845,3.8857,3.8894,3.8908,3.8736,3.8737,3.8737,0,3.8761,3.8785,3.8736,3.8761,3.876,3.8692,3.873,3.8722,3.8707,3.8708,3.8674,3.8694,3.868,3.8724,3.8752,3.8754,3.8762,3.8728,3.8847,3.8859,3.8869,3.8904,3.8918,3.8743,3.8742,3.8741,3.8741,0,3.8877,3.8895,3.8929,3.8914,3.8918,3.895,3.8905,3.8916,3.8881,3.8855,3.8889,3.8869,3.8869,3.8879,3.8846,3.8919,3.8899,3.8858,3.8793,3.8893,3.8924,3.8937,3.8751,3.8749,3.8747,3.8746,0,0,3.9051,3.901,3.9023,3.9014,3.899,3.9003,3.9033,3.9033,3.9041,3.9035,3.9056,3.9075,3.9035,3.9033,3.8999,3.9025,3.9112,3.8979,3.8978,3.9,3.9188,3.9216,3.9232,3.9084,3.9086,3.9088,3.9188,0,3.9156,3.9201,3.9158,3.9213,3.9227,3.9164,3.919,3.9178,3.9155,3.9165,3.9141,3.9152,3.9102,3.9099,3.9123,3.9097,3.9148,3.909,3.9101,3.9102,3.9101,3.9249,3.9279,3.9373,3.92,3.9202,3.9204,0,3.9283,3.928,3.9336,3.9306,3.9311,3.9335,3.933,3.9341,3.9327,3.9309,3.9307,3.9266,3.9292,3.9235,3.927,3.9231,3.9235,3.9223,3.9226,3.922,3.9155,3.9243,3.9403,3.9415,3.9223,3.9222,3.922,0,3.9398,3.941,3.9443,3.9439,3.9408,3.9425,3.9413,3.9395,3.9398,3.9396,3.9396,3.9399,3.9399,3.9401,3.9362,3.9324,3.9401,3.9341,3.9385,3.9386,3.9399,3.9397,3.9556,3.9411,3.941,3.941,3.941,0,3.9516,3.9551,3.9494,3.9514,3.9552,3.9504,3.9543,3.9525,3.951,3.9526,3.9474,3.949,3.944,3.9451,3.9421,3.9453,3.9455,3.9439,3.943,3.9441,3.9442,3.9438,3.9428,3.9414,3.9413,3.9412,3.9412,0,3.9648,3.9612,3.9644,3.9612,3.9605,3.9634,3.9606,3.9624,3.9599,3.962,3.9622,3.9583,3.9593,3.9555,3.956,3.954,3.9586,3.9569,3.959,3.9583,3.9627,3.9622,3.9784,3.9802,3.965,3.9651,3.9653,0,3.9723,3.9748,3.9719,3.9725,3.9716,3.9727,3.9729,3.9685,3.9689,3.9675,3.9694,3.97,3.9702,3.9722,3.9694,3.9697,3.9676,3.9733,3.9676,3.9685,3.9671,3.9668,3.9669,3.9743,3.9745,3.9746,3.9748,0,3.9858,3.9839,3.9843,3.9842,3.9846,3.9843,3.9837,3.9846,3.9798,3.9806,3.9815,3.9816,3.9821,3.9826,3.9824,3.9812,3.9771,3.9767,3.9776,3.9785,3.9794,3.9785,3.9617,3.9762,3.976,3.9759,3.9759,3.9758,3.996,3.9979,3.9961,3.9968,3.9959,3.9954,3.9968,3.9945,3.9952,3.9951,3.9926,3.994,3.9925,3.9918,3.991,3.9921,3.9894,3.9909,3.9911,3.9915,3.992,3.9797,3.9921,3.992,3.992,3.992,3.9919,0,4.0088,4.0074,4.0081,4.0073,4.0079,4.0042,4.0034,4.004,4.0053,4.0043,4.0046,4.0057,4.0063,4.0037,4.0039,4.0052,4.0034,4.0054,4.005,4.0047,3.9946,3.9935,4.0069,4.0069,4.0069,4.0069,4.0069,4.0069,4.0155,4.0184,4.0163,4.0187,4.0173,4.0185,4.0183,4.0179,4.017,4.0184,4.0188,4.0172,4.0155,4.0156,4.016,4.0152,4.0153,4.0179,4.0165,4.007,4.0055,4.0041,4.003,4.0181,4.0182,4.0265,4.0265,4.0266]}]]